Location: Tucson
(32.2217°N, 110.9265°W)
Time: 13:06:45
(UTC-07:00)

Hubble Space Telescope - Visible Passes

Search period start: 10 August 2020 00:00
Search period end: 20 August 2020 00:00
Orbit: 536 x 540 km, 28.5° (Epoch: 10 August)

Date Brightness Start Highest point End Pass type
(mag) Time Alt. Az. Time Alt. Az. Time Alt. Az.
10 Aug 3.1 03:34:39 15° SE 03:34:39 15° SE 03:36:00 10° ESE visible
10 Aug 1.5 05:10:03 10° WSW 05:13:56 40° S 05:17:49 10° E visible
11 Aug 3.2 03:24:30 15° ESE 03:24:30 15° ESE 03:25:33 10° ESE visible
11 Aug 1.4 04:59:50 13° WSW 05:03:11 44° S 05:07:07 10° E visible
12 Aug 3.4 03:14:22 13° ESE 03:14:22 13° ESE 03:15:02 10° ESE visible
12 Aug 1.2 04:49:41 18° WSW 04:52:27 47° S 04:56:26 10° E visible
13 Aug 3.6 03:04:14 11° ESE 03:04:14 11° ESE 03:04:27 10° ESE visible
13 Aug 1.1 04:39:34 24° WSW 04:41:44 49° S 04:45:43 10° ESE visible
14 Aug 1.1 04:29:28 32° SW 04:31:00 50° S 04:35:00 10° ESE visible
15 Aug 1.0 04:19:26 42° SW 04:20:16 50° S 04:24:16 10° ESE visible
16 Aug 1.0 04:09:28 48° S 04:09:33 48° S 04:13:31 10° ESE visible
17 Aug 1.5 03:59:35 40° SSE 03:59:35 40° SSE 04:02:45 10° ESE visible
18 Aug 2.3 03:49:49 26° SE 03:49:49 26° SE 03:51:58 10° ESE visible
19 Aug 3.1 03:40:10 16° SE 03:40:10 16° SE 03:41:08 10° SE visible
19 Aug 2.6 05:15:34 10° WSW 05:18:03 15° SSW 05:20:31 10° SSE visible
